This is the latest recevied weather packets stored in our database for station/object SQ7RAF-15. If no packets are shown the sender has not sent any weather packets the latest 10 day(s).
| Time | Temp. | Humidity | Pressure | Rain* | Wind** | Luminosity | Snow |
|---|---|---|---|---|---|---|---|
| 1778302248 | 8.33° C | 94% | 1019.7 hPa | 0 mm | - | 55 W/m² | - |
| 1778301928 | 8.33° C | 94% | 1019.8 hPa | 0 mm | - | 48 W/m² | - |
| 1778301640 | 8.33° C | 94% | 1019.7 hPa | 0 mm | - | 41 W/m² | - |
| 1778301320 | 8.33° C | 94% | 1019.7 hPa | 0 mm | - | 36 W/m² | - |
| 1778301032 | 8.33° C | 94% | 1019.8 hPa | 0 mm | - | 32 W/m² | - |
| 1778300744 | 8.33° C | 94% | 1019.7 hPa | 0 mm | - | 27 W/m² | - |
| 1778300424 | 8.33° C | 94% | 1019.7 hPa | 0 mm | - | 21 W/m² | - |
| 1778300120 | 8.33° C | 94% | 1019.7 hPa | 0 mm | - | 16 W/m² | - |
| 1778299832 | 8.33° C | 95% | 1019.7 hPa | 0 mm | - | 12 W/m² | - |
| 1778299544 | 8.33° C | 95% | 1019.7 hPa | 0 mm | - | 10 W/m² | - |
| 1778299224 | 8.33° C | 95% | 1019.5 hPa | 0 mm | - | 9 W/m² | - |
| 1778298937 | 8.33° C | 95% | 1019.6 hPa | 0 mm | - | 7 W/m² | - |
| 1778298648 | 8.33° C | 95% | 1019.6 hPa | 0 mm | - | 6 W/m² | - |
| 1778298329 | 8.33° C | 95% | 1019.5 hPa | 0 mm | - | 5 W/m² | - |
| 1778298040 | 8.33° C | 95% | 1019.6 hPa | 0 mm | - | 4 W/m² | - |
| 1778297721 | 8.33° C | 95% | 1019.5 hPa | 0 mm | - | 3 W/m² | - |
| 1778297432 | 8.33° C | 95% | 1019.5 hPa | 0 mm | - | 2 W/m² | - |
| 1778297144 | 8.33° C | 95% | 1019.4 hPa | 0 mm | - | 1 W/m² | - |
| 1778296824 | 8.33° C | 95% | 1019.5 hPa | 0 mm | - | 0 W/m² | - |
| 1778296536 | 8.33° C | 95% | 1019.5 hPa | 0 mm | - | 0 W/m² | - |
| 1778296248 | 8.33° C | 95% | 1019.5 hPa | 0 mm | - | 0 W/m² | - |
| 1778295928 | 8.33° C | 95% | 1019.5 hPa | 0 mm | - | 0 W/m² | - |
| 1778295640 | 8.33° C | 95% | 1019.5 hPa | 0 mm | - | 0 W/m² | - |
| 1778295320 | 8.33° C | 95% | 1019.6 hPa | 0 mm | - | 0 W/m² | - |
| 1778295032 | 8.33° C | 95% | 1019.5 hPa | 0 mm | - | 0 W/m² | - |
* Rain latest hour (hover to see other rain measurements)
** Current wind speed in m/s (hover to see current wind gust speed)